EST,Max TemperatureF,Mean TemperatureF,Min TemperatureF,Max Dew PointF,MeanDew PointF,Min DewpointF,Max Humidity, Mean Humidity, Min Humidity, Max Sea Level PressureIn, Mean Sea Level PressureIn, Min Sea Level PressureIn, Max VisibilityMiles, Mean VisibilityMiles, Min VisibilityMiles, Max Wind SpeedMPH, Mean Wind SpeedMPH, Max Gust SpeedMPH,PrecipitationIn, CloudCover, Events, WindDirDegrees
2012-12-1,64,47,30,45,36,30,100,79,37,30.45,30.38,30.34,10,8,3,6,1,,0.00,0,,15
2012-12-2,68,50,33,48,42,34,100,80,43,30.41,30.35,30.27,10,8,2,12,1,17,0.00,2,,213
2012-12-3,73,57,41,49,45,41,100,78,36,30.36,30.31,30.27,10,8,3,8,1,,0.03,2,,129
2012-12-4,72,53,35,50,45,36,100,73,37,30.36,30.28,30.21,10,8,0,12,2,16,0.00,2,Fog,221
2012-12-5,63,51,39,56,50,39,99,81,64,30.26,30.21,30.17,10,10,10,7,3,,0.00,5,Rain,50
2012-12-6,50,46,43,40,36,30,80,68,57,30.35,30.28,30.25,10,10,7,7,2,,0.00,8,Rain,30
2012-12-7,55,46,38,45,41,38,100,84,68,30.25,30.14,30.06,10,8,2,4,0,,0.00,6,Rain,27
2012-12-8,67,50,35,53,45,35,100,91,55,30.10,30.05,30.01,10,5,0,7,0,,0.00,4,Fog,168
2012-12-9,62,54,46,58,52,46,100,98,81,30.16,30.09,30.03,10,2,0,5,0,,0.01,6,Fog-Rain,350
2012-12-10,62,56,51,58,56,51,100,97,79,30.02,29.83,29.73,10,6,0,12,1,,0.04,7,Fog-Rain,214
2012-12-11,58,48,37,57,36,32,95,64,44,30.19,29.99,29.77,10,10,10,10,5,,0.01,2,Rain,336
2012-12-12,46,40,35,33,32,29,91,66,57,30.35,30.29,30.20,10,10,10,7,3,,0.00,5,,16
2012-12-13,53,40,26,30,24,18,87,53,25,30.44,30.38,30.33,10,10,10,9,4,,0.00,3,,34
2012-12-14,58,38,19,32,26,18,96,73,31,30.41,30.34,30.26,10,10,7,5,1,,0.00,0,,220
2012-12-15,56,44,32,38,33,29,96,72,37,30.29,30.21,30.10,10,10,10,7,0,,0.00,2,,80
2012-12-16,48,44,42,48,45,36,100,96,69,30.10,30.03,29.95,10,4,0,5,1,,0.51,8,Rain,5
2012-12-17,53,49,46,53,50,47,100,100,94,29.93,29.82,29.69,10,3,0,10,1,,0.08,8,Fog-Rain,247
2012-12-18,55,42,30,51,35,25,100,69,32,29.96,29.84,29.70,10,10,5,14,4,23,0.01,3,,257
2012-12-19,64,46,28,45,34,25,96,69,32,30.15,30.05,29.95,10,10,7,8,2,,0.00,0,,219
2012-12-20,47,40,34,43,38,32,100,89,67,30.16,29.93,29.60,10,7,1,8,3,,0.72,5,Rain,356
2012-12-21,40,38,35,30,22,17,67,54,43,29.93,29.77,29.66,10,10,10,25,12,33,0.02,8,Rain,269
2012-12-22,55,40,25,18,10,-4,70,37,9,30.16,30.06,29.93,10,10,10,17,10,34,0.00,0,,306
2012-12-23,56,38,20,32,21,9,89,56,17,30.17,30.10,30.04,10,10,10,6,1,,0.00,2,,223
2012-12-24,44,42,40,43,41,30,100,95,57,30.05,29.97,29.91,10,3,0,6,1,,0.66,8,Fog-Rain,287
2012-12-25,45,42,38,45,42,38,100,99,91,30.14,30.06,29.96,10,4,0,5,1,,0.02,8,Fog-Rain,335
2012-12-26,44,40,37,44,37,28,100,92,66,30.02,29.71,29.53,10,7,2,13,7,28,1.89,7,Rain-Snow,7
2012-12-27,48,38,28,29,27,25,96,68,45,30.11,29.95,29.75,10,10,10,13,5,18,0.01,1,,298
2012-12-28,41,32,24,34,28,23,99,83,61,30.19,30.10,30.00,10,9,4,5,0,,0.02,4,Rain,74
2012-12-29,49,40,32,44,30,20,100,78,50,30.07,29.88,29.76,10,6,0,18,4,29,0.20,7,Fog-Rain-Snow,281
2012-12-30,46,36,25,22,18,14,86,50,27,30.42,30.30,30.08,10,10,10,21,7,26,0.00,0,,283
2012-12-31,50,36,22,34,26,21,94,71,33,30.39,30.28,30.13,10,10,7,5,1,,0.00,2,,247